| time (UTC) | temp F | wind direction | speed knots | gust knots | rain 1hr in | rain 24hr in | rain mn in | humidity % | barometer mb |
| 20260503050316 | 51 | 0.0 | 0.0 | 0.00 | 0.00 | 0.00 | 58 | 1010.8 | |
| 20260503045317 | 51 | 0.0 | 0.9 | 0.00 | 0.00 | 0.00 | 59 | 1010.7 | |
| 20260503044317 | 51 | 0.0 | 0.0 | 0.00 | 0.00 | 0.00 | 60 | 1010.8 | |
| 20260503043317 | 52 | 0.0 | 0.0 | 0.00 | 0.00 | 0.00 | 58 | 1010.9 | |
| 20260503042318 | 53 | 0.0 | 0.0 | 0.00 | 0.00 | 0.00 | 56 | 1011.0 | |
| 20260503041316 | 53 | 0.0 | 0.9 | 0.00 | 0.00 | 0.00 | 55 | 1011.1 | |
| 20260503040337 | 53 | 203 | 0.9 | 0.9 | 0.00 | 0.00 | 0.00 | 54 | 1011.1 |
| 20260503035317 | 53 | 0.0 | 0.9 | 0.00 | 0.00 | 0.00 | 52 | 1011.2 | |
| 20260503034317 | 53 | 203 | 0.9 | 1.7 | 0.00 | 0.00 | 0.00 | 52 | 1011.3 |
| 20260503033338 | 54 | 0.0 | 0.9 | 0.00 | 0.00 | 0.00 | 54 | 1011.4 | |
| 20260503032337 | 54 | 203 | 0.9 | 0.9 | 0.00 | 0.00 | 0.00 | 53 | 1011.5 |
| 20260503031317 | 54 | 203 | 0.9 | 1.7 | 0.00 | 0.00 | 0.00 | 51 | 1011.6 |
| 20260503030336 | 54 | 0.0 | 0.9 | 0.00 | 0.00 | 0.00 | 52 | 1011.6 | |
| 20260503025316 | 54 | 0.0 | 0.0 | 0.00 | 0.00 | 0.00 | 52 | 1011.9 | |
| 20260503024316 | 54 | 203 | 0.9 | 1.7 | 0.00 | 0.00 | 0.00 | 52 | 1011.9 |
| 20260503023316 | 55 | 203 | 0.9 | 0.9 | 0.00 | 0.00 | 0.00 | 51 | 1012.0 |
| 20260503022317 | 55 | 203 | 0.9 | 0.9 | 0.00 | 0.00 | 0.00 | 50 | 1011.9 |
| 20260503021318 | 55 | 203 | 0.9 | 0.9 | 0.00 | 0.00 | 0.00 | 50 | 1012.0 |
| 20260503020316 | 55 | 0.0 | 0.9 | 0.00 | 0.00 | 0.00 | 49 | 1012.0 | |
| 20260503015316 | 55 | 0.0 | 0.9 | 0.00 | 0.00 | 0.00 | 51 | 1011.9 | |
| 20260503014316 | 55 | 203 | 0.9 | 0.9 | 0.00 | 0.00 | 0.00 | 50 | 1011.9 |
| 20260503013317 | 56 | 203 | 0.9 | 1.7 | 0.00 | 0.00 | 0.00 | 50 | 1011.9 |
| 20260503012317 | 55 | 180 | 0.9 | 1.7 | 0.00 | 0.00 | 0.00 | 48 | 1011.9 |
| 20260503011316 | 56 | 180 | 0.9 | 1.7 | 0.00 | 0.00 | 0.00 | 48 | 1012.0 |
| 20260503010339 | 56 | 180 | 0.9 | 1.7 | 0.00 | 0.00 | 0.00 | 48 | 1012.1 |
| 20260503005318 | 57 | 180 | 0.9 | 1.7 | 0.00 | 0.00 | 0.00 | 46 | 1012.0 |
| 20260503004317 | 58 | 180 | 0.9 | 1.7 | 0.00 | 0.00 | 0.00 | 42 | 1012.2 |
| 20260503003317 | 59 | 180 | 0.9 | 1.7 | 0.00 | 0.00 | 0.00 | 41 | 1012.2 |
| 20260503002316 | 59 | 180 | 0.9 | 1.7 | 0.00 | 0.00 | 0.00 | 42 | 1012.3 |
| 20260503001316 | 59 | 135 | 0.9 | 1.7 | 0.00 | 0.00 | 0.00 | 42 | 1012.4 |
| 20260503000318 | 61 | 0.0 | 0.9 | 0.00 | 0.00 | 0.00 | 38 | 1012.5 | |
| 20260502235316 | 61 | 113 | 2.6 | 3.5 | 0.00 | 0.00 | 0.00 | 38 | 1012.4 |
| 20260502234316 | 61 | 135 | 0.9 | 2.6 | 0.00 | 0.00 | 0.00 | 36 | 1012.7 |
| 20260502233316 | 61 | 248 | 0.9 | 1.7 | 0.00 | 0.00 | 0.00 | 42 | 1012.8 |
| 20260502232357 | 62 | 158 | 1.7 | 3.5 | 0.00 | 0.00 | 0.00 | 33 | 1012.7 |
| 20260502231316 | 62 | 158 | 0.9 | 1.7 | 0.00 | 0.00 | 0.00 | 33 | 1012.9 |
| 20260502230316 | 62 | 45 | 0.9 | 0.9 | 0.00 | 0.00 | 0.00 | 37 | 1012.8 |
| 20260502225357 | 62 | 68 | 1.7 | 2.6 | 0.00 | 0.00 | 0.00 | 32 | 1013.0 |
| 20260502224316 | 62 | 90 | 0.9 | 1.7 | 0.00 | 0.00 | 0.00 | 35 | 1013.1 |
| 20260502223316 | 62 | 113 | 0.9 | 3.5 | 0.00 | 0.00 | 0.00 | 40 | 1013.2 |
| 20260502222316 | 61 | 45 | 0.9 | 1.7 | 0.00 | 0.00 | 0.00 | 33 | 1013.2 |
| 20260502221316 | 62 | 113 | 2.6 | 7.0 | 0.00 | 0.00 | 0.00 | 32 | 1013.4 |
| 20260502220317 | 62 | 45 | 1.7 | 3.5 | 0.00 | 0.00 | 0.00 | 33 | 1013.5 |
| 20260502215316 | 62 | 113 | 2.6 | 3.5 | 0.00 | 0.00 | 0.00 | 33 | 1013.6 |
| 20260502214317 | 61 | 135 | 3.5 | 5.2 | 0.00 | 0.00 | 0.00 | 31 | 1013.6 |
| 20260502213336 | 62 | 90 | 1.7 | 5.2 | 0.00 | 0.00 | 0.00 | 32 | 1013.8 |
| 20260502212316 | 62 | 113 | 1.7 | 3.5 | 0.00 | 0.00 | 0.00 | 30 | 1014.0 |
| 20260502211316 | 62 | 225 | 0.9 | 2.6 | 0.00 | 0.00 | 0.00 | 33 | 1014.1 |
| 20260502210316 | 61 | 45 | 1.7 | 4.3 | 0.00 | 0.00 | 0.00 | 31 | 1014.4 |
| 20260502205337 | 62 | 45 | 2.6 | 3.5 | 0.00 | 0.00 | 0.00 | 32 | 1014.4 |
| 20260502204336 | 61 | 45 | 3.5 | 4.3 | 0.00 | 0.00 | 0.00 | 29 | 1014.6 |
| 20260502203316 | 62 | 135 | 1.7 | 4.3 | 0.00 | 0.00 | 0.00 | 31 | 1014.8 |
| 20260502202317 | 61 | 113 | 4.3 | 7.0 | 0.00 | 0.00 | 0.00 | 30 | 1014.7 |
| 20260502201316 | 61 | 113 | 3.5 | 6.1 | 0.00 | 0.00 | 0.00 | 31 | 1015.0 |
| 20260502200317 | 60 | 90 | 1.7 | 2.6 | 0.00 | 0.00 | 0.00 | 32 | 1015.1 |
| 20260502195317 | 61 | 90 | 3.5 | 7.0 | 0.00 | 0.00 | 0.00 | 29 | 1015.4 |
| 20260502194336 | 61 | 293 | 2.6 | 3.5 | 0.00 | 0.00 | 0.00 | 31 | 1015.4 |
| 20260502193316 | 60 | 68 | 5.2 | 7.8 | 0.00 | 0.00 | 0.00 | 32 | 1015.8 |
| 20260502192316 | 60 | 113 | 2.6 | 5.2 | 0.00 | 0.00 | 0.00 | 35 | 1015.8 |
| 20260502191316 | 60 | 90 | 1.7 | 3.5 | 0.00 | 0.00 | 0.00 | 32 | 1016.2 |
| 20260502190337 | 60 | 45 | 2.6 | 4.3 | 0.00 | 0.00 | 0.00 | 32 | 1016.1 |
| 20260502185316 | 59 | 180 | 5.2 | 11.3 | 0.00 | 0.00 | 0.00 | 32 | 1016.3 |
| 20260502184317 | 60 | 135 | 2.6 | 3.5 | 0.00 | 0.00 | 0.00 | 34 | 1016.6 |
| 20260502183316 | 60 | 68 | 3.5 | 6.1 | 0.00 | 0.00 | 0.00 | 32 | 1016.6 |
| 20260502182316 | 59 | 90 | 4.3 | 7.0 | 0.00 | 0.00 | 0.00 | 32 | 1016.5 |
| 20260502181316 | 59 | 113 | 4.3 | 6.1 | 0.00 | 0.00 | 0.00 | 34 | 1017.0 |
| 20260502180316 | 60 | 113 | 4.3 | 7.8 | 0.00 | 0.00 | 0.00 | 31 | 1016.9 |
| 20260502170317 | 56 | 203 | 1.7 | 3.5 | 0.00 | 0.00 | 0.00 | 35 | 1017.4 |
| 20260502164316 | 57 | 0 | 3.5 | 7.0 | 0.00 | 0.00 | 0.00 | 36 | 1017.7 |
| 20260502163316 | 55 | 113 | 0.9 | 1.7 | 0.00 | 0.00 | 0.00 | 42 | 1017.8 |
| 20260502162315 | 55 | 90 | 4.3 | 6.1 | 0.00 | 0.00 | 0.00 | 38 | 1017.9 |
| 20260502161316 | 54 | 45 | 2.6 | 4.3 | 0.00 | 0.00 | 0.00 | 39 | 1017.9 |
| 20260502160316 | 56 | 135 | 0.9 | 2.6 | 0.00 | 0.00 | 0.00 | 37 | 1018.0 |
| 20260502152318 | 55 | 158 | 1.7 | 3.5 | 0.00 | 0.00 | 0.00 | 47 | 1018.3 |
| 20260502151318 | 54 | 68 | 2.6 | 7.8 | 0.00 | 0.00 | 0.00 | 46 | 1018.2 |
| 20260502150339 | 53 | 180 | 1.7 | 2.6 | 0.00 | 0.00 | 0.00 | 44 | 1018.4 |
| 20260502130317 | 43 | 225 | 1.7 | 5.2 | 0.00 | 0.00 | 0.00 | 55 | 1019.0 |
| 20260502123337 | 42 | 158 | 2.6 | 5.2 | 0.00 | 0.00 | 0.00 | 54 | 1019.0 |
| 20260502122317 | 42 | 90 | 2.6 | 5.2 | 0.00 | 0.00 | 0.00 | 54 | 1019.0 |
| 20260502121317 | 42 | 135 | 2.6 | 4.3 | 0.00 | 0.00 | 0.00 | 54 | 1018.9 |
| 20260502120317 | 42 | 203 | 1.7 | 3.5 | 0.00 | 0.00 | 0.00 | 53 | 1018.8 |
| 20260502115317 | 41 | 158 | 2.6 | 4.3 | 0.00 | 0.00 | 0.00 | 54 | 1018.8 |
| 20260502114317 | 41 | 113 | 1.7 | 3.5 | 0.00 | 0.00 | 0.00 | 55 | 1018.7 |
| 20260502113338 | 41 | 90 | 3.5 | 7.8 | 0.00 | 0.00 | 0.00 | 56 | 1018.6 |
| 20260502112318 | 40 | 113 | 2.6 | 6.1 | 0.00 | 0.00 | 0.00 | 56 | 1018.5 |
| 20260502111318 | 40 | 113 | 3.5 | 5.2 | 0.00 | 0.00 | 0.00 | 58 | 1018.5 |
| 20260502110338 | 39 | 158 | 2.6 | 4.3 | 0.00 | 0.00 | 0.00 | 60 | 1018.6 |
| 20260502105318 | 37 | 0.0 | 0.9 | 0.00 | 0.00 | 0.00 | 66 | 1018.5 | |
| 20260502104317 | 40 | 225 | 0.9 | 1.7 | 0.00 | 0.00 | 0.00 | 62 | 1018.7 |
| 20260502103317 | 40 | 113 | 2.6 | 4.3 | 0.00 | 0.00 | 0.00 | 57 | 1018.6 |
| 20260502102338 | 40 | 180 | 2.6 | 4.3 | 0.00 | 0.00 | 0.00 | 59 | 1018.6 |
| 20260502101317 | 37 | 135 | 2.6 | 4.3 | 0.00 | 0.00 | 0.00 | 68 | 1018.5 |
| 20260502100318 | 36 | 0.0 | 0.0 | 0.00 | 0.00 | 0.00 | 71 | 1018.6 | |
| 20260502091318 | 37 | 0.0 | 0.0 | 0.00 | 0.00 | 0.00 | 72 | 1018.7 | |
| 20260502090317 | 37 | 0.0 | 0.0 | 0.00 | 0.00 | 0.00 | 73 | 1018.7 | |
| 20260502071317 | 39 | 0.0 | 0.0 | 0.00 | 0.00 | 0.00 | 70 | 1018.6 | |
| 20260502070318 | 39 | 0.0 | 0.0 | 0.00 | 0.00 | 0.00 | 65 | 1018.7 | |
| 20260502065317 | 39 | 0.0 | 0.0 | 0.00 | 0.00 | 0.00 | 66 | 1018.7 | |
| 20260502064317 | 39 | 0.0 | 0.9 | 0.00 | 0.00 | 0.00 | 67 | 1018.8 | |
| 20260502063318 | 40 | 0.0 | 0.0 | 0.00 | 0.00 | 0.00 | 61 | 1018.9 | |
| 20260502062317 | 40 | 0.0 | 0.0 | 0.00 | 0.00 | 0.00 | 62 | 1019.0 | |
| 20260502061316 | 41 | 0.0 | 0.0 | 0.00 | 0.00 | 0.00 | 62 | 1019.0 | |
| 20260502060316 | 41 | 0.0 | 0.0 | 0.00 | 0.00 | 0.00 | 61 | 1018.9 | |
| 20260502055316 | 41 | 0.0 | 0.0 | 0.00 | 0.00 | 0.00 | 62 | 1018.9 | |
| 20260502054318 | 41 | 0.0 | 0.0 | 0.00 | 0.00 | 0.00 | 61 | 1018.7 | |
| 20260502053318 | 41 | 0.0 | 0.0 | 0.00 | 0.00 | 0.00 | 63 | 1018.7 | |
| 20260502052316 | 42 | 0.0 | 0.0 | 0.00 | 0.00 | 0.00 | 58 | 1018.7 | |
| 20260502051317 | 42 | 0.0 | 0.0 | 0.00 | 0.00 | 0.00 | 60 | 1018.7 |